Location: Zagreb
(45.8000°N, 16.0000°E)
Time: 00:28:21
(UTC+02:00)

Vanguard 1 Rocket - All Passes

Search period start: 02 October 2020 00:00
Search period end: 12 October 2020 00:00
Orbit: 655 x 4221 km, 34.3° (Epoch: 30 September)

Date Brightness Start Highest point End Pass type
(mag) Time Alt. Az. Time Alt. Az. Time Alt. Az.
02 Oct - 00:26:03 10° W 00:44:16 31° SW 01:04:19 10° SSE visible
02 Oct - 15:59:56 10° S 16:07:00 23° SE 16:17:54 10° E daylight
02 Oct - 18:21:02 10° SW 18:32:04 51° SSE 18:52:13 10° E daylight
02 Oct - 20:45:28 10° W 21:00:39 56° S 21:24:55 10° ESE visible
02 Oct - 23:12:30 10° W 23:30:38 40° SSW 23:53:13 10° SSE visible
03 Oct - 01:46:33 10° W 01:59:02 17° SW 02:11:50 10° SSW visible
03 Oct - 14:54:05 10° SE 14:56:44 11° SE 14:59:46 10° ESE daylight
03 Oct - 17:11:10 10° SW 17:20:14 40° SSE 17:36:30 10° E daylight
03 Oct - 19:34:26 10° WSW 19:47:16 56° S 20:09:55 10° ESE visible
03 Oct - 22:00:06 10° W 22:16:49 48° SSW 22:40:35 10° SE visible
04 Oct - 00:29:45 10° W 00:46:06 26° SW 01:04:25 10° S visible
04 Oct - 16:02:05 10° SSW 16:09:13 27° SE 16:20:47 10° E daylight
04 Oct - 18:23:54 10° WSW 18:34:36 52° SSE 18:54:27 10° E visible
04 Oct - 20:48:28 10° W 21:03:06 53° SSW 21:26:43 10° SE visible
04 Oct - 23:15:47 10° W 23:32:42 35° SSW 23:54:02 10° SSE visible
05 Oct - 01:54:32 10° WSW 02:00:46 11° SW 02:07:09 10° SW visible
05 Oct - 14:54:34 10° SSE 14:58:50 15° SE 15:04:26 10° ESE daylight
05 Oct - 17:13:54 10° SW 17:22:42 43° SSE 17:38:54 10° E daylight
05 Oct - 19:37:26 10° WSW 19:49:50 55° S 20:11:56 10° ESE visible
05 Oct - 22:03:13 10° W 22:19:06 42° SSW 22:41:51 10° SE visible
06 Oct - 00:34:06 10° W 00:48:00 20° SW 01:03:38 10° S visible
06 Oct - 16:04:31 10° SSW 16:11:34 31° SE 16:23:30 10° E daylight
06 Oct - 18:26:52 10° WSW 18:37:12 53° S 18:56:37 10° ESE visible
06 Oct - 20:51:33 10° W 21:05:35 48° SSW 21:28:19 10° SE visible
06 Oct - 23:19:22 10° W 23:34:48 29° SW 23:54:19 10° SSE visible
07 Oct - 14:56:12 10° S 15:01:06 18° SE 15:08:01 10° E daylight
07 Oct - 17:16:46 10° SW 17:25:17 46° SSE 17:41:14 10° E daylight
07 Oct - 19:40:29 10° WSW 19:52:27 52° S 20:13:47 10° ESE visible
07 Oct - 22:06:31 10° W 22:21:25 37° SSW 22:42:45 10° SSE visible
08 Oct - 00:39:49 10° WSW 00:49:58 15° SW 01:01:12 10° SSW visible
08 Oct - 16:07:10 10° SW 16:14:04 34° SSE 16:26:07 10° E daylight
08 Oct - 18:29:53 10° WSW 18:39:53 52° S 18:58:43 10° ESE visible
08 Oct - 20:54:43 10° W 21:08:05 43° SSW 21:29:39 10° SE visible
08 Oct - 23:23:25 10° W 23:36:57 23° SW 23:53:53 10° S visible
09 Oct - 14:58:20 10° S 15:03:29 22° SE 15:11:11 10° E daylight
09 Oct - 17:19:42 10° WSW 17:27:58 47° SSE 17:43:33 10° ESE daylight
09 Oct - 19:43:36 10° W 19:55:06 48° S 20:15:29 10° SE visible
09 Oct - 22:10:02 10° W 22:23:45 31° SSW 22:43:11 10° SSE visible
10 Oct - 13:52:34 10° SE 13:53:21 10° SE 13:54:10 10° SE daylight
10 Oct - 16:09:57 10° SW 16:16:41 37° SSE 16:28:40 10° E daylight
10 Oct - 18:32:59 10° WSW 18:42:38 49° S 19:00:42 10° ESE visible
10 Oct - 20:58:02 10° W 21:10:38 37° SSW 21:30:41 10° SSE visible
10 Oct - 23:28:21 10° WSW 23:39:12 17° SW 23:52:17 10° S visible
11 Oct - 15:00:46 10° SSW 15:06:01 25° SSE 15:14:08 10° E daylight
11 Oct - 17:22:45 10° WSW 17:30:44 47° S 17:45:48 10° ESE daylight
11 Oct - 19:46:49 10° W 19:57:47 43° SSW 20:16:58 10° SE visible
11 Oct - 22:13:55 10° W 22:26:10 25° SSW 22:43:01 10° S visible
